Location: Newark
(39.6867°N, 100.6772°W)
Time: 09:19:57
(UTC+00:00)

Vanguard 1 - Pass Details

Date: 13 October 2019
Orbit: 652 x 3831 km, 34.2° (Epoch: 19 November)

Event Time Altitude Azimuth Distance (km) Brightness Sun altitude
Rises 02:46:42 0° 232° (SW) 4,553 13.9 -31.0°
Reaches altitude 10° 02:49:15 10° 227° (SW) 3,883 13.4 -31.5°
Maximum altitude 02:59:49 55° 153° (SSE) 2,812 11.9 -33.4°
Enters shadow 03:01:35 53° 132° (SE) 3,002 12.0 -33.8°
Drops below altitude 10° 03:18:30 10° 83° (E) 6,548 - -36.8°
Sets 03:24:22 0° 80° (E) 7,822 - -37.8°
